• MPC Preparation (Info)

  • MPEC 2013-S34 : 2013 SK19

    The following Minor Planet Electronic Circular may be linked-to from your own Web pages, but must not otherwise be redistributed electronically.

    A form allowing access to any MPEC is at the bottom of this page.


    Read MPEC 2013-S33 Read MPEC 2013-S35


    M.P.E.C. 2013-S34                                Issued 2013 Sept. 25, 22:06 UT
    
         The Minor Planet Electronic Circulars contain information on unusual
             minor planets and routine data on comets.  They are published
       on behalf of Commission 20 of the International Astronomical Union by the
              Minor Planet Center, Smithsonian Astrophysical Observatory,
                              Cambridge, MA 02138, U.S.A.
    
                 Prepared using the Tamkin Foundation Computer Network
    
                                  MPC@CFA.HARVARD.EDU
                URL https://www.minorplanetcenter.net/    ISSN 1523-6714
    
                                       2013 SK19
    
    Observations:
         K13S19K* C2013 09 21.51135 03 11 52.222+60 04 59.94         19.2 iLES034F51
         K13S19K  C2013 09 21.51867 03 11 53.625+60 04 53.78         19.1 iLES034F51
         K13S19K KC2013 09 22.29248503 14 31.60 +59 53 09.3          19.1 VqES034H21
         K13S19K KC2013 09 22.29937103 14 32.86 +59 53 02.5          18.7 VqES034H21
         K13S19K KC2013 09 22.30628503 14 34.27 +59 52 55.8          19.2 VqES034H21
         K13S19K KC2013 09 22.31341403 14 35.59 +59 52 49.6          19.6 VqES034H21
         K13S19K KC2013 09 22.31932 03 14 36.89 +59 52 43.5          19.8 RqES034H36
         K13S19K KC2013 09 22.33107 03 14 39.23 +59 52 32.9          19.6 RqES034H36
         K13S19K KC2013 09 22.34246 03 14 41.44 +59 52 22.9          19.4 RqES034H36
         K13S19K KC2013 09 23.01513 03 16 56.29 +59 41 34.5          19.5 RqES034204
         K13S19K KC2013 09 23.02779 03 16 58.69 +59 41 22.6                qES034204
         K13S19K KC2013 09 23.04031 03 17 01.09 +59 41 10.4                qES034204
         K13S19K KC2013 09 23.31876803 17 56.05 +59 36 35.3          19.5 VuES034H21
         K13S19K KC2013 09 23.32317803 17 56.88 +59 36 30.6          19.9 VuES034H21
         K13S19K KC2013 09 23.32759203 17 57.74 +59 36 26.5          19.4 VuES034H21
         K13S19K KC2013 09 23.33200503 17 58.56 +59 36 22.1          19.4 VuES034H21
         K13S19K KC2013 09 23.33654703 17 59.38 +59 36 17.7          19.6 VuES034H21
         K13S19K KC2013 09 23.80171 03 19 31.29 +59 28 05.4                qES034J95
         K13S19K KC2013 09 23.81124 03 19 33.18 +59 27 55.6                qES034J95
         K13S19K KC2013 09 23.82083 03 19 35.08 +59 27 46.5          19.4 RqES034J95
         K13S19K KC2013 09 23.83957 03 19 38.77 +59 27 28.0          18.4 RqES034970
         K13S19K KC2013 09 23.84632 03 19 40.10 +59 27 21.3          18.7 RqES034970
         K13S19K KC2013 09 23.85307 03 19 41.42 +59 27 14.5          18.6 RqES034970
         K13S19K  C2013 09 24.38361503 21 22.96 +59 18 04.8          19.8 VqES034V37
         K13S19K  C2013 09 24.38639103 21 23.47 +59 18 01.8          20.1 VqES034V37
         K13S19K  C2013 09 24.38777903 21 23.71 +59 18 00.4          19.9 VqES034V37
         K13S19K  C2013 09 24.38916603 21 23.95 +59 17 58.9          20.1 VqES034V37
         K13S19K  C2013 09 24.39055303 21 24.20 +59 17 57.6          20.0 VqES034V37
         K13S19K  C2013 09 24.39193903 21 24.45 +59 17 56.1          19.9 VqES034V37
         K13S19K  C2013 09 24.39332603 21 24.72 +59 17 54.6          19.7 VqES034V37
         K13S19K KC2013 09 24.41571 03 21 28.53 +59 17 27.9          19.4 RqES034H36
         K13S19K KC2013 09 24.42529 03 21 30.35 +59 17 17.6          18.9 RqES034H36
         K13S19K KC2013 09 24.43942 03 21 32.78 +59 17 02.1          19.2 RqES034H36
         K13S19K  C2013 09 25.40373 03 24 35.60 +58 58 59.2          19.3 RtES034H01
         K13S19K  C2013 09 25.41262 03 24 37.16 +58 58 48.9          18.9 RtES034H01
         K13S19K  C2013 09 25.41875 03 24 38.23 +58 58 41.9          18.7 RtES034H01
         K13S19K  C2013 09 25.43204 03 24 40.55 +58 58 26.5          19.0 RtES034H01
    
    Observer details:
    204 Schiaparelli Observatory.  Observer L. Buzzi.  0.60-m f/4.64 reflector
        + CCD.
    970 Chelmsford.  Observer N. James.  0.28-m f/10 Schmidt-Cassegrain + CCD.
    F51 Pan-STARRS 1, Haleakala.  Observers N. Primak, A. Schultz. T. Goggia,
        M. Willman.  Measurer PS1 Science Consortium.  1.8-m Ritchey-Chretien
        + CCD.
    H01 Magdalena Ridge Observatory, Socorro.  Observer W. H. Ryan.  2.4-m f/8.9
        reflector + CCD.
    H21 Astronomical Research Observatory, Westfield.  Observer R. Holmes.
        Measurers T. Vorobjov, L. Buzzi, S. Foglia, H. Devore, A. Kostin,
        T. Linder, T. Lister. T. Vorobjov.  0.61-m f/4.0 astrograph + CCD, 0.61-m
        f/4.5 astrograph + CCD.
    H36 Sandlot Observatory, Scranton.  Observer G. Hug.  0.56-m reflector + CCD.
    J95 Great Shefford.  Observer P. Birtwhistle.  0.40-m f/6.0 Schmidt-Cassegrain
        + CCD.
    V37 McDonald Observatory-LCOGT ELP.  Observer T. Lister.  1.0-m f/8
        Ritchey-Chretien + CCD.
    
    Orbital elements:
    2013 SK19                                                Earth MOID = 0.3428 AU
    Epoch 2013 Nov. 4.0 TT = JDT 2456600.5                  MPC
    M  10.21694              (2000.0)            P               Q
    n   0.27742739     Peri.  147.27417     +0.90046268     -0.25186522
    a   2.3282869      Node   231.58402     +0.23260185     +0.96775134
    e   0.4454170      Incl.   26.90769     +0.36750965     +0.00461071
    P   3.55           H   18.5           G   0.15           U   8
    Residuals in seconds of arc
    130921 F51  0.0   0.0     130923 H21  0.5-  0.2-    130924 V37  0.0   0.1-
    130921 F51  0.1-  0.0     130923 H21  0.2-  0.0     130924 V37  0.0   0.1+
    130922 H21  0.2+  0.5+    130923 H21  0.3-  0.0     130924 V37  0.0   0.1+
    130922 H21  0.3-  0.1-    130923 H21  0.5-  0.1+    130924 V37  0.1+  0.0
    130922 H21  0.3+  0.5-    130923 J95  0.1+  0.3+    130924 H36  0.3+  0.3-
    130922 H21  0.1-  0.3-    130923 J95  0.1+  0.0     130924 H36  0.9+  0.1-
    130922 H36  0.5-  0.6-    130923 J95  0.1+  0.4+    130924 H36  0.1-  0.0
    130922 H36  0.1+  0.5-    130923 970  0.0   0.2+    130925 H01  0.4-  0.3-
    130922 H36  0.3+  0.2-    130923 970  0.0   0.2+    130925 H01  0.3-  0.4-
    130923 204  0.0   0.2-    130923 970  0.0   0.1+    130925 H01  0.4-  0.3-
    130923 204  0.1-  0.0     130924 V37  0.0   0.1-    130925 H01  0.4-  0.3-
    130923 204  0.1+  0.2-    130924 V37  0.1+  0.2-
    130923 H21  0.5-  0.1+    130924 V37  0.0   0.1-
    
    Ephemeris:
    2013 SK19                a,e,i = 2.33, 0.45, 27                  q = 1.2912
    Date    TT    R. A. (2000) Decl.     Delta      r     Elong.  Phase     V
    2013 08 26    01 28 20.4 +60 22 33   0.7144  1.3335    99.8    48.3    20.2
    ...
    2013 09 10    02 28 32.9 +61 38 18   0.6257  1.3042   103.5    48.6    19.9
    ...
    2013 09 18    02 59 23.5 +60 48 57   0.5781  1.2953   106.7    48.0    19.7
    ...
    2013 09 24    03 20 08.5 +59 24 49   0.5427  1.2919   109.8    47.0    19.5
    2013 09 25    03 23 19.6 +59 06 36   0.5369  1.2916   110.3    46.7    19.5
    2013 09 26    03 26 25.4 +58 47 08   0.5310  1.2914   110.9    46.5    19.4
    ...
    2013 10 02    03 43 00.5 +56 23 08   0.4967  1.2918   115.0    44.6    19.2
    ...
    2013 10 10    03 59 21.8 +51 52 16   0.4539  1.2967   121.8    40.9    19.0
    ...
    2013 10 25    04 12 57.7 +38 52 40   0.3932  1.3191   139.7    29.2    18.4
    
    A. U. Tomatic                (C) Copyright 2013 MPC           M.P.E.C. 2013-S34
    

    Read MPEC 2013-S33 Read MPEC 2013-S35


    MPEC number:

    Enter an MPEC number in one of the following forms:

    • 1997-B01 (the full form)
    • J97B01 (the packed version of the full form)
    • B01 (the abbreviated form)